Location: Bakov nad Jizerou
(50.4784°N, 14.9394°E)
Time: 22:52:08
(UTC+00:00)

Cosmos 1300 - Pass Details

Date: 16 June 2021
Orbit: 509 x 513 km, 82.5° (Epoch: 23 July)

Event Time Altitude Azimuth Distance (km) Brightness Sun altitude
Rises 20:26:34 0° 357° (N) 2,641 7.4 -8.6°
Reaches altitude 10° 20:28:52 10° 7° (N) 1,748 6.1 -8.9°
Maximum altitude 20:32:21 32° 72° (ENE) 892 3.7 -9.2°
Enters shadow 20:35:22 13° 134° (SE) 1,571 4.5 -9.4°
